Starlink 35293

operational
NORAD ID: 66012 Int'l Des: 2025-232 Owner: SPXS Country: US Constellation: starlink
LEOCIRCULAR

Über Starlink 35293

Beschreibung wird geladen...

Live-Position

3D-Globus wird geladen...

Nächste Überflüge

Höhenverlauf

Altitude vs Time

uPlot chart will show altitude changes over time

Zweizeiliger Elementsatz

1 66012C 25232H 25290.41020833 .00993910 00000+0 13786-2 0 2909
2 66012 53.1575 58.9225 0008706 285.6748 202.6159 16.04200067 17
Epoch: 17. Okt. 2025 • Age: 63 hours

Aktueller Status

Höhe 248.9 km
Geschwindigkeit 7.76 km/s
Subsatellitenpunkt -3.89°S, 150.49°E
Startdatum 16. Okt. 2025
Alter 3 days
Typ internet

Technische Details

Klassifizierung Payload
Masse 575.00 kg
Trockenmasse 530.00 kg
Gesamtmasse 575.00 kg
Länge 0.30 m
Durchmesser 4.10 m
Spannweite 29.00 m
Form Box + pan
Hersteller SPXS
Bus-Typ Starlink V2MO
Phasenstatus In Orbit
Besitzer/Staat SPXS/US

Große Konstellationen

Loading constellations...